Flag for U.S.A. Weather past 2 weeks in Detroit, Michigan, U.S.A.

Now
51 °F

Mostly cloudy.


Feels Like: 47 °F
Forecast: 40 / 53 °F
Wind: 13 mph from North

Location: Detroit City Airport

Current Time: Apr 27, 2015 at 5:47:01 PM

Latest Report: Apr 27, 2015 at 4:53 PM


Visibility: 10 mi

Pressure: 30.03 "Hg

Humidity: 50%

Dew point: 33 °F

Location of DetroitLocation

Historic Weather in Detroit — Graph

°F

Detroit temperature yesterday

Maximum temperature yesterday: 55 °F (at 1:53 PM)
Minimum temperature yesterday: 34 °F (at 4:53 AM)
Average temperature yesterday: 45 °F

Past Weeks' High & Low Weather Summary

 TemperatureHumidityPressure
High71 °F (Apr 13, 1:53 PM)100% (Apr 17, 4:56 AM)30.40 "Hg (Apr 17, 4:56 AM)
Low30 °F (Apr 24, 5:53 AM)16% (Apr 18, 6:53 PM)29.24 "Hg (Apr 20, 5:53 AM)
Average49 °F57%29.95 "Hg
* Reported Apr 12 3:53 PM — Apr 27 3:53 PM, Detroit, Weather by CustomWeather, © 2015

Note: Actual official high and low records may vary slightly from our data, if they occured in-between our weather recording intervals... More about our weather records

Advertising

Detroit weather history for previous 24 hours

 ConditionsComfort  
Time TempWeatherWind HumidityBarometerVisibility
3:53 PM
Mon, Apr 27
49 °FMostly cloudy.13 mph57%30.03 "Hg10 mi
2:53 PM50 °FOvercast.10 mph52%30.03 "Hg10 mi
2:03 PM47 °FMostly cloudy.8 mph61%30.02 "Hg10 mi
1:53 PM47 °FMostly cloudy.7 mph61%30.03 "Hg10 mi
12:53 PM45 °FOvercast.15 mph65%30.04 "Hg10 mi
11:53 AM45 °FOvercast.14 mph63%30.02 "Hg10 mi
10:53 AM44 °FOvercast.12 mph65%30.01 "Hg10 mi
9:53 AM43 °FOvercast.12 mph71%29.98 "Hg10 mi
8:53 AM41 °FOvercast.16 mph80%29.96 "Hg10 mi
8:03 AM41 °FLight rain. Mostly cloudy.10 mph82%29.95 "Hg10 mi
7:53 AM41 °FLight rain. More clouds than sun.9 mph82%29.96 "Hg10 mi
7:03 AM42 °FMostly cloudy.10 mph76%29.94 "Hg10 mi
6:53 AM42 °FMostly cloudy.9 mph76%29.94 "Hg10 mi
5:53 AM43 °FOvercast.6 mph68%29.93 "Hg10 mi
4:53 AM44 °FOvercast.7 mph60%29.92 "Hg10 mi
3:53 AM42 °FMostly cloudy.6 mph65%29.92 "Hg10 mi
2:53 AM41 °FPassing clouds.6 mph67%29.92 "Hg10 mi
1:53 AM41 °FPassing clouds.5 mph65%29.93 "Hg10 mi
12:53 AM41 °FClear.5 mph65%29.94 "Hg10 mi
11:53 PM
Sun, Apr 26
42 °FClear.No wind62%29.94 "Hg10 mi
10:53 PM42 °FClear.5 mph62%29.95 "Hg10 mi
9:53 PM44 °FClear.8 mph58%29.94 "Hg10 mi
8:53 PM45 °FSunny.10 mph56%29.92 "Hg10 mi
7:53 PM48 °FSunny.9 mph54%29.90 "Hg10 mi
6:53 PM50 °FPartly sunny.9 mph52%29.91 "Hg10 mi
5:53 PM53 °FOvercast.14 mph41%29.91 "Hg10 mi
Weather by CustomWeather, © 2015

See weather overviewHow to use our weather pages